CZ-3B DEB, 40852

Orbit data source: Space-Track

CZ-3B DEB, 40852 is space debris in HEO originally from a launch on Mon, 19 Dec 2011 UTC launched from the Xichang Space Center, China (XSC). Debris objects in space refer to the collection of defunct objects orbiting the Earth. Examples of debris include non-operational satellites, rocket bodies, and fragments generated from explosions, collisions, or faulty payload assembly.

Loading next visibility...
Identifier
40852, 2011-077AH
Orbit
HEO
Country
Flag of CNCN / PRC
Related business
Manufacturer
CALT
Mission
Spacecraft
Bus & Motor
Unknown
Mass
Unknown
Launch date (UTC)
2011-12-19 (14 years ago)
Launch vehicle
Unknown
Launch site
Xichang Space Center, China (XSC)
Object type
Payload
Rocket body
Debris
Shape & HBR
Unknown shape, 0.2 m
Radar Cross Section
Medium (>0.1 m² and <1 m²)

Expand to show TLE details & history
Last TLE update: 1 week ago

TLE from 1 week ago
0 CZ-3B DEB
1 40852U 11077AH  26029.58473731 -.00000194  00000-0  00000-0 0  9997
2 40852  26.8604  73.4776 7331607 247.4961  24.0721  1.90686986 83719
Epoch: 2026-01-29T14:02Z
TLE epoch observation values (Epoch: 2026-01-29T14:02:01.303Z)
Latitude
0.00001°
Longitude
94.28076°
Altitude
11,292.175 km
Speed
5.532 km/s
True Right ascension
04h 54m 29s
True Declination
0° 00' 00"
Sunlit
Object was in daylight at epoch
Visualization orbit readout
Latitude
Unknown
Longitude
Unknown
Altitude
Unknown
Speed
Unknown
Apparent Right ascension
Unknown
Apparent Declination
Unknown
Sunlit
N/A
Visualization observer readout
Local Sidereal Time
12:36:16
Azimuth
Unknown
Elevation
Unknown
Doppler factor
Unknown
Orbital elements
Apogee altitude
41,237.488 km
Perigee altitude
952.816 km
Semi-major axis
27,473.289 km
Eccentricity
0.73316
Inclination
26.8604°
RAAN
73.4776°
Arg. of periapsis
247.4961°
True anomaly
112.35382°
Mean anomaly
24.0721°
Eccentric anomaly
60.70799°
Mean motion
0.47663 °/min
Orbital period
755.31 mins
BSTAR
0
Loading maneuver chart data...
Computing Atmospheric mass density...
Loading historical data...
Loading historical data...
Loading historical data...
Loading historical data...
Loading historical data...
Loading historical data...
Loading historical data...

Documentation

Showing up to 5 results
|